| time (UTC) | temp C | wind direction | speed KPH | gust KPH | rain 1hr cm | rain 24hr cm | rain mn cm | humidity % | barometer mb |
| 20260507023026 | 8 | 113 | 1.6 | 3.2 | 0.00 | 0.00 | 0.00 | 43 | 1014.0 |
| 20260507022522 | 9 | 143 | 3.2 | 3.2 | 0.00 | 0.00 | 0.00 | 42 | 1014.0 |
| 20260507022017 | 10 | 157 | 1.6 | 1.6 | 0.00 | 0.00 | 0.00 | 40 | 1014.0 |
| 20260507021514 | 10 | 160 | 3.2 | 3.2 | 0.00 | 0.00 | 0.00 | 39 | 1014.0 |
| 20260507021010 | 10 | 207 | 0.0 | 3.2 | 0.00 | 0.00 | 0.00 | 38 | 1014.2 |
| 20260507020508 | 11 | 203 | 0.0 | 3.2 | 0.00 | 0.00 | 0.00 | 36 | 1014.1 |
| 20260507020004 | 11 | 233 | 3.2 | 4.8 | 0.00 | 0.00 | 0.00 | 36 | 1014.0 |
| 20260507015503 | 11 | 257 | 1.6 | 4.8 | 0.00 | 0.00 | 0.00 | 36 | 1014.1 |
| 20260507015000 | 11 | 258 | 1.6 | 4.8 | 0.00 | 0.00 | 0.00 | 37 | 1014.1 |
| 20260507014456 | 11 | 285 | 3.2 | 4.8 | 0.00 | 0.00 | 0.00 | 37 | 1014.2 |
| 20260507013952 | 11 | 263 | 4.8 | 6.4 | 0.00 | 0.00 | 0.00 | 35 | 1014.2 |
| 20260507013449 | 11 | 266 | 6.4 | 8.0 | 0.00 | 0.00 | 0.00 | 34 | 1014.3 |
| 20260507012946 | 12 | 265 | 3.2 | 8.0 | 0.00 | 0.00 | 0.00 | 35 | 1014.0 |
| 20260507012443 | 12 | 274 | 3.2 | 3.2 | 0.00 | 0.00 | 0.00 | 35 | 1014.1 |
| 20260507011940 | 12 | 269 | 3.2 | 4.8 | 0.00 | 0.00 | 0.00 | 35 | 1014.2 |
| 20260507011437 | 12 | 276 | 4.8 | 4.8 | 0.00 | 0.00 | 0.00 | 34 | 1014.3 |
| 20260507010937 | 12 | 277 | 4.8 | 6.4 | 0.00 | 0.00 | 0.00 | 34 | 1014.2 |
| 20260507010432 | 12 | 288 | 4.8 | 9.7 | 0.00 | 0.00 | 0.00 | 33 | 1014.1 |
| 20260507005929 | 12 | 280 | 6.4 | 8.0 | 0.00 | 0.00 | 0.00 | 33 | 1014.5 |
| 20260507005426 | 12 | 287 | 6.4 | 6.4 | 0.00 | 0.00 | 0.00 | 33 | 1014.5 |
| 20260507004923 | 12 | 266 | 4.8 | 8.0 | 0.00 | 0.00 | 0.00 | 33 | 1014.6 |
| 20260507004420 | 12 | 287 | 8.0 | 9.7 | 0.00 | 0.00 | 0.00 | 33 | 1014.6 |
| 20260507003918 | 12 | 282 | 6.4 | 8.0 | 0.00 | 0.00 | 0.00 | 33 | 1014.7 |
| 20260507003412 | 12 | 291 | 8.0 | 14.5 | 0.00 | 0.00 | 0.00 | 31 | 1014.6 |
| 20260507002908 | 12 | 287 | 9.7 | 12.9 | 0.00 | 0.00 | 0.00 | 31 | 1014.6 |
| 20260507002404 | 12 | 290 | 11.3 | 17.7 | 0.00 | 0.00 | 0.00 | 31 | 1014.6 |
| 20260507001902 | 13 | 290 | 8.0 | 16.1 | 0.00 | 0.00 | 0.00 | 31 | 1014.5 |
| 20260507001358 | 13 | 290 | 11.3 | 16.1 | 0.00 | 0.00 | 0.00 | 30 | 1014.6 |
| 20260507000855 | 13 | 292 | 14.5 | 16.1 | 0.00 | 0.00 | 0.00 | 30 | 1014.8 |
| 20260507000350 | 13 | 316 | 9.7 | 14.5 | 0.00 | 0.00 | 0.00 | 31 | 1015.0 |
| 20260506235847 | 13 | 315 | 12.9 | 17.7 | 0.00 | 0.00 | 0.00 | 31 | 1015.0 |
| 20260506235344 | 12 | 285 | 9.7 | 12.9 | 0.00 | 0.00 | 0.00 | 32 | 1015.0 |
| 20260506234840 | 12 | 294 | 11.3 | 14.5 | 0.00 | 0.00 | 0.00 | 32 | 1015.0 |
| 20260506234338 | 12 | 262 | 6.4 | 11.3 | 0.00 | 0.00 | 0.00 | 33 | 1014.8 |
| 20260506233835 | 13 | 275 | 8.0 | 11.3 | 0.00 | 0.00 | 0.00 | 33 | 1014.9 |
| 20260506233331 | 13 | 261 | 6.4 | 12.9 | 0.00 | 0.00 | 0.00 | 31 | 1015.1 |
| 20260506232828 | 14 | 274 | 11.3 | 14.5 | 0.00 | 0.00 | 0.00 | 30 | 1015.1 |
| 20260506232324 | 13 | 247 | 8.0 | 16.1 | 0.00 | 0.00 | 0.00 | 30 | 1015.2 |
| 20260506231820 | 13 | 254 | 11.3 | 17.7 | 0.00 | 0.00 | 0.00 | 30 | 1015.1 |
| 20260506231318 | 14 | 266 | 17.7 | 22.5 | 0.00 | 0.00 | 0.00 | 29 | 1015.1 |
| 20260506230816 | 14 | 296 | 9.7 | 17.7 | 0.00 | 0.00 | 0.00 | 30 | 1015.1 |
| 20260506230312 | 13 | 303 | 12.9 | 17.7 | 0.00 | 0.00 | 0.00 | 31 | 1015.1 |
| 20260506225808 | 14 | 275 | 8.0 | 12.9 | 0.00 | 0.00 | 0.00 | 31 | 1015.3 |
| 20260506225306 | 14 | 263 | 8.0 | 14.5 | 0.00 | 0.00 | 0.00 | 29 | 1015.2 |
| 20260506224802 | 15 | 259 | 11.3 | 17.7 | 0.00 | 0.00 | 0.00 | 29 | 1015.3 |
| 20260506224300 | 14 | 266 | 14.5 | 22.5 | 0.00 | 0.00 | 0.00 | 29 | 1015.2 |
| 20260506223756 | 14 | 271 | 12.9 | 27.4 | 0.00 | 0.00 | 0.00 | 29 | 1015.2 |
| 20260506223251 | 15 | 261 | 11.3 | 17.7 | 0.00 | 0.00 | 0.00 | 28 | 1015.3 |
| 20260506222748 | 14 | 320 | 9.7 | 16.1 | 0.00 | 0.00 | 0.00 | 32 | 1015.4 |
| 20260506222244 | 12 | 280 | 9.7 | 16.1 | 0.00 | 0.00 | 0.00 | 30 | 1015.5 |
| 20260506221737 | 12 | 282 | 11.3 | 16.1 | 0.00 | 0.00 | 0.00 | 30 | 1015.6 |
| 20260506221234 | 14 | 280 | 12.9 | 19.3 | 0.00 | 0.00 | 0.00 | 29 | 1015.6 |
| 20260506220726 | 12 | 290 | 12.9 | 16.1 | 0.00 | 0.00 | 0.00 | 31 | 1015.8 |
| 20260506220226 | 13 | 277 | 12.9 | 16.1 | 0.00 | 0.00 | 0.00 | 30 | 1015.6 |
| 20260506215722 | 13 | 266 | 14.5 | 19.3 | 0.00 | 0.00 | 0.00 | 31 | 1015.8 |
| 20260506215218 | 14 | 264 | 11.3 | 17.7 | 0.00 | 0.00 | 0.00 | 30 | 1016.0 |
| 20260506214715 | 13 | 323 | 11.3 | 20.9 | 0.00 | 0.00 | 0.00 | 30 | 1015.9 |
| 20260506214212 | 13 | 306 | 14.5 | 17.7 | 0.00 | 0.00 | 0.00 | 30 | 1015.8 |
| 20260506213710 | 12 | 310 | 12.9 | 17.7 | 0.00 | 0.00 | 0.00 | 32 | 1016.2 |
| 20260506213208 | 13 | 268 | 9.7 | 17.7 | 0.00 | 0.00 | 0.00 | 31 | 1016.0 |
| 20260506212704 | 13 | 0 | 12.9 | 17.7 | 0.00 | 0.00 | 0.00 | 33 | 1016.2 |
| 20260506212200 | 13 | 298 | 12.9 | 19.3 | 0.00 | 0.00 | 0.00 | 31 | 1016.2 |
| 20260506211655 | 13 | 274 | 12.9 | 19.3 | 0.00 | 0.00 | 0.00 | 31 | 1016.4 |
| 20260506211152 | 12 | 311 | 9.7 | 14.5 | 0.00 | 0.00 | 0.00 | 32 | 1016.2 |
| 20260506210649 | 13 | 287 | 16.1 | 25.7 | 0.00 | 0.00 | 0.00 | 31 | 1016.5 |
| 20260506210146 | 13 | 284 | 9.7 | 20.9 | 0.00 | 0.00 | 0.00 | 32 | 1016.4 |
| 20260506205644 | 13 | 289 | 17.7 | 22.5 | 0.00 | 0.00 | 0.00 | 31 | 1016.6 |
| 20260506205143 | 13 | 300 | 11.3 | 22.5 | 0.00 | 0.00 | 0.00 | 30 | 1016.4 |
| 20260506204642 | 13 | 286 | 11.3 | 20.9 | 0.00 | 0.00 | 0.00 | 31 | 1016.3 |
| 20260506204138 | 13 | 281 | 17.7 | 24.1 | 0.00 | 0.00 | 0.00 | 32 | 1016.6 |
| 20260506203637 | 14 | 289 | 16.1 | 29.0 | 0.00 | 0.00 | 0.00 | 32 | 1016.8 |
| 20260506203133 | 14 | 269 | 11.3 | 19.3 | 0.00 | 0.00 | 0.00 | 30 | 1016.8 |
| 20260506202631 | 13 | 263 | 11.3 | 24.1 | 0.00 | 0.00 | 0.00 | 32 | 1016.9 |
| 20260506202127 | 13 | 300 | 16.1 | 24.1 | 0.00 | 0.00 | 0.00 | 32 | 1016.9 |
| 20260506201624 | 12 | 297 | 12.9 | 19.3 | 0.00 | 0.00 | 0.00 | 33 | 1016.9 |
| 20260506201121 | 12 | 309 | 17.7 | 24.1 | 0.00 | 0.00 | 0.00 | 32 | 1017.1 |
| 20260506200617 | 12 | 309 | 9.7 | 9.7 | 0.00 | 0.00 | 0.00 | 36 | 1017.3 |
| 20260506200114 | 12 | 280 | 9.7 | 19.3 | 0.00 | 0.00 | 0.00 | 33 | 1017.1 |
| 20260506195611 | 12 | 297 | 11.3 | 20.9 | 0.00 | 0.00 | 0.00 | 34 | 1016.9 |
| 20260506195107 | 13 | 285 | 14.5 | 22.5 | 0.00 | 0.00 | 0.00 | 31 | 1017.1 |
| 20260506194605 | 13 | 293 | 22.5 | 27.4 | 0.00 | 0.00 | 0.00 | 32 | 1017.3 |
| 20260506194101 | 12 | 298 | 20.9 | 22.5 | 0.00 | 0.00 | 0.00 | 32 | 1017.1 |
| 20260506193559 | 12 | 291 | 11.3 | 19.3 | 0.00 | 0.00 | 0.00 | 34 | 1017.2 |
| 20260506193056 | 12 | 297 | 14.5 | 17.7 | 0.00 | 0.00 | 0.00 | 33 | 1017.3 |
| 20260506192552 | 12 | 299 | 9.7 | 19.3 | 0.00 | 0.00 | 0.00 | 32 | 1017.5 |
| 20260506192048 | 12 | 289 | 17.7 | 27.4 | 0.00 | 0.00 | 0.00 | 32 | 1017.4 |
| 20260506191545 | 11 | 338 | 8.0 | 20.9 | 0.00 | 0.00 | 0.00 | 32 | 1017.5 |
| 20260506191041 | 12 | 279 | 24.1 | 29.0 | 0.00 | 0.00 | 0.00 | 32 | 1017.3 |
| 20260506190538 | 12 | 306 | 20.9 | 24.1 | 0.00 | 0.00 | 0.00 | 33 | 1017.3 |
| 20260506190035 | 12 | 272 | 14.5 | 19.3 | 0.00 | 0.00 | 0.00 | 33 | 1017.5 |
| 20260506185533 | 12 | 273 | 14.5 | 20.9 | 0.00 | 0.00 | 0.00 | 34 | 1017.4 |
| 20260506185029 | 12 | 255 | 14.5 | 27.4 | 0.00 | 0.00 | 0.00 | 33 | 1017.5 |
| 20260506184527 | 12 | 286 | 17.7 | 22.5 | 0.00 | 0.00 | 0.00 | 32 | 1017.4 |
| 20260506184024 | 13 | 275 | 12.9 | 17.7 | 0.00 | 0.00 | 0.00 | 35 | 1017.6 |
| 20260506183519 | 13 | 273 | 8.0 | 20.9 | 0.00 | 0.00 | 0.00 | 33 | 1017.8 |
| 20260506183016 | 11 | 293 | 14.5 | 27.4 | 0.00 | 0.00 | 0.00 | 34 | 1017.9 |
| 20260506182514 | 12 | 298 | 12.9 | 22.5 | 0.00 | 0.00 | 0.00 | 34 | 1017.9 |
| 20260506182010 | 11 | 299 | 14.5 | 29.0 | 0.00 | 0.00 | 0.00 | 33 | 1018.1 |
| 20260506181508 | 12 | 292 | 11.3 | 17.7 | 0.00 | 0.00 | 0.00 | 32 | 1018.1 |
| 20260506181005 | 12 | 294 | 19.3 | 27.4 | 0.00 | 0.00 | 0.00 | 33 | 1018.1 |
| 20260506180502 | 11 | 310 | 20.9 | 27.4 | 0.00 | 0.00 | 0.00 | 33 | 1018.0 |
| 20260506175958 | 12 | 267 | 11.3 | 14.5 | 0.00 | 0.00 | 0.00 | 33 | 1018.1 |
| 20260506175455 | 12 | 307 | 14.5 | 20.9 | 0.00 | 0.00 | 0.00 | 34 | 1018.2 |
| 20260506174951 | 12 | 292 | 17.7 | 19.3 | 0.00 | 0.00 | 0.00 | 36 | 1018.1 |
| 20260506174450 | 12 | 302 | 19.3 | 25.7 | 0.00 | 0.00 | 0.00 | 33 | 1018.1 |
| 20260506173946 | 12 | 307 | 17.7 | 24.1 | 0.00 | 0.00 | 0.00 | 34 | 1018.1 |
| 20260506173443 | 11 | 272 | 16.1 | 22.5 | 0.00 | 0.00 | 0.00 | 35 | 1018.3 |
| 20260506172940 | 10 | 300 | 12.9 | 27.4 | 0.00 | 0.00 | 0.00 | 36 | 1018.5 |
| 20260506172437 | 11 | 302 | 14.5 | 22.5 | 0.00 | 0.00 | 0.00 | 33 | 1018.3 |
| 20260506171934 | 11 | 304 | 16.1 | 25.7 | 0.00 | 0.00 | 0.00 | 34 | 1018.3 |
| 20260506171431 | 11 | 312 | 14.5 | 19.3 | 0.00 | 0.00 | 0.00 | 34 | 1018.4 |
| 20260506170929 | 12 | 276 | 25.7 | 29.0 | 0.00 | 0.00 | 0.00 | 33 | 1018.7 |
| 20260506170425 | 11 | 322 | 8.0 | 22.5 | 0.00 | 0.00 | 0.00 | 35 | 1018.5 |
| 20260506165924 | 11 | 291 | 20.9 | 30.6 | 0.00 | 0.00 | 0.00 | 34 | 1018.7 |
| 20260506165422 | 11 | 267 | 8.0 | 27.4 | 0.00 | 0.00 | 0.00 | 35 | 1018.6 |
| 20260506164918 | 10 | 283 | 12.9 | 19.3 | 0.00 | 0.00 | 0.00 | 38 | 1018.7 |
| 20260506164415 | 10 | 308 | 17.7 | 30.6 | 0.00 | 0.00 | 0.00 | 35 | 1018.8 |
| 20260506163913 | 11 | 290 | 14.5 | 24.1 | 0.00 | 0.00 | 0.00 | 35 | 1018.9 |
| 20260506163407 | 11 | 322 | 9.7 | 16.1 | 0.00 | 0.00 | 0.00 | 36 | 1018.8 |
| 20260506162902 | 10 | 297 | 16.1 | 22.5 | 0.00 | 0.00 | 0.00 | 36 | 1018.9 |
| 20260506162400 | 10 | 285 | 16.1 | 24.1 | 0.00 | 0.00 | 0.00 | 36 | 1018.8 |
| 20260506161857 | 11 | 287 | 20.9 | 27.4 | 0.00 | 0.00 | 0.00 | 35 | 1018.8 |
| 20260506161355 | 10 | 295 | 12.9 | 17.7 | 0.00 | 0.00 | 0.00 | 39 | 1018.8 |
| 20260506160852 | 10 | 306 | 8.0 | 17.7 | 0.00 | 0.00 | 0.00 | 39 | 1018.9 |
| 20260506160349 | 10 | 299 | 14.5 | 17.7 | 0.00 | 0.00 | 0.00 | 38 | 1018.8 |
| 20260506155848 | 10 | 313 | 11.3 | 19.3 | 0.00 | 0.00 | 0.00 | 37 | 1018.9 |
| 20260506155344 | 10 | 278 | 12.9 | 24.1 | 0.00 | 0.00 | 0.00 | 39 | 1019.1 |
| 20260506153502 | 8 | 285 | 9.7 | 12.9 | 0.00 | 0.00 | 0.00 | 45 | 1019.1 |
| 20260506152959 | 9 | 348 | 12.9 | 16.1 | 0.00 | 0.00 | 0.00 | 47 | 1019.0 |
| 20260506152456 | 10 | 325 | 4.8 | 14.5 | 0.00 | 0.00 | 0.00 | 45 | 1019.2 |
| 20260506151954 | 8 | 284 | 6.4 | 8.0 | 0.00 | 0.00 | 0.00 | 47 | 1019.3 |
| 20260506151451 | 10 | 278 | 8.0 | 9.7 | 0.00 | 0.00 | 0.00 | 45 | 1019.3 |
| 20260506150949 | 8 | 273 | 3.2 | 6.4 | 0.00 | 0.00 | 0.00 | 46 | 1019.4 |
| 20260506150444 | 8 | 311 | 9.7 | 11.3 | 0.00 | 0.00 | 0.00 | 48 | 1019.4 |
| 20260506145942 | 9 | 286 | 6.4 | 9.7 | 0.00 | 0.00 | 0.00 | 47 | 1019.4 |
| 20260506145438 | 8 | 292 | 8.0 | 11.3 | 0.00 | 0.00 | 0.00 | 46 | 1019.7 |
| 20260506144936 | 8 | 326 | 4.8 | 12.9 | 0.00 | 0.00 | 0.00 | 46 | 1019.8 |
| 20260506144432 | 8 | 287 | 3.2 | 8.0 | 0.00 | 0.00 | 0.00 | 48 | 1019.7 |
| 20260506143930 | 8 | 297 | 4.8 | 9.7 | 0.00 | 0.00 | 0.00 | 46 | 1019.8 |
| 20260506143427 | 7 | 261 | 3.2 | 8.0 | 0.00 | 0.00 | 0.00 | 49 | 1019.8 |
| 20260506142925 | 7 | 352 | 3.2 | 9.7 | 0.00 | 0.00 | 0.00 | 49 | 1019.7 |
| 20260506142423 | 7 | 255 | 4.8 | 8.0 | 0.00 | 0.00 | 0.00 | 51 | 1019.8 |
| 20260506141921 | 7 | 326 | 6.4 | 6.4 | 0.00 | 0.00 | 0.00 | 50 | 1019.9 |
| 20260506141419 | 7 | 276 | 6.4 | 6.4 | 0.00 | 0.00 | 0.00 | 51 | 1019.8 |
| 20260506140917 | 7 | 226 | 4.8 | 8.0 | 0.00 | 0.00 | 0.00 | 51 | 1019.8 |
| 20260506140413 | 7 | 277 | 6.4 | 6.4 | 0.00 | 0.00 | 0.00 | 52 | 1019.9 |
| 20260506135911 | 7 | 244 | 6.4 | 6.4 | 0.00 | 0.00 | 0.00 | 52 | 1019.9 |
| 20260506135408 | 6 | 268 | 3.2 | 6.4 | 0.00 | 0.00 | 0.00 | 52 | 1019.9 |
| 20260506134904 | 6 | 234 | 3.2 | 6.4 | 0.00 | 0.00 | 0.00 | 54 | 1019.8 |
| 20260506134400 | 6 | 272 | 4.8 | 4.8 | 0.00 | 0.00 | 0.00 | 58 | 1019.7 |
| 20260506133857 | 6 | 280 | 3.2 | 3.2 | 0.00 | 0.00 | 0.00 | 59 | 1019.7 |
| 20260506133353 | 5 | 259 | 3.2 | 8.0 | 0.00 | 0.00 | 0.00 | 57 | 1019.5 |
| 20260506132850 | 5 | 239 | 1.6 | 4.8 | 0.00 | 0.00 | 0.00 | 60 | 1019.7 |
| 20260506132347 | 5 | 251 | 3.2 | 3.2 | 0.00 | 0.00 | 0.00 | 64 | 1019.3 |
| 20260506131846 | 5 | 195 | 0.0 | 3.2 | 0.00 | 0.00 | 0.00 | 65 | 1019.4 |
| 20260506131341 | 4 | 199 | 0.0 | 3.2 | 0.00 | 0.00 | 0.00 | 68 | 1019.5 |
| 20260506130839 | 3 | 304 | 0.0 | 3.2 | 0.00 | 0.00 | 0.00 | 68 | 1019.4 |
| 20260506130335 | 3 | 188 | 0.0 | 4.8 | 0.00 | 0.00 | 0.00 | 71 | 1019.2 |
| 20260506125833 | 3 | 181 | 4.8 | 6.4 | 0.00 | 0.00 | 0.00 | 71 | 1019.3 |
| 20260506125331 | 2 | 223 | 0.0 | 3.2 | 0.00 | 0.00 | 0.00 | 75 | 1019.1 |
| 20260506124829 | 1 | 239 | 3.2 | 4.8 | 0.00 | 0.00 | 0.00 | 77 | 1019.3 |
| 20260506124326 | 0 | 229 | 1.6 | 3.2 | 0.00 | 0.00 | 0.00 | 79 | 1019.2 |
| 20260506123823 | 0 | 102 | 0.0 | 3.2 | 0.00 | 0.00 | 0.00 | 81 | 1019.0 |
| 20260506123322 | 0 | 189 | 0.0 | 4.8 | 0.00 | 0.00 | 0.00 | 81 | 1019.0 |
| 20260506122819 | 0 | 169 | 3.2 | 4.8 | 0.00 | 0.00 | 0.00 | 81 | 1019.0 |
| 20260506122316 | 0 | 149 | 6.4 | 6.4 | 0.00 | 0.00 | 0.00 | 81 | 1018.9 |
| 20260506121814 | 0 | 145 | 3.2 | 3.2 | 0.00 | 0.00 | 0.00 | 81 | 1018.8 |
| 20260506121310 | 0 | 179 | 3.2 | 4.8 | 0.00 | 0.00 | 0.00 | 81 | 1018.7 |
| 20260506120808 | 0 | 159 | 1.6 | 3.2 | 0.00 | 0.00 | 0.00 | 81 | 1018.7 |
| 20260506120305 | 0 | 205 | 3.2 | 3.2 | 0.00 | 0.00 | 0.00 | 81 | 1018.8 |
| 20260506115803 | 0 | 124 | 3.2 | 3.2 | 0.00 | 0.00 | 0.00 | 81 | 1018.6 |
| 20260506115301 | 0 | 138 | 3.2 | 3.2 | 0.00 | 0.00 | 0.00 | 80 | 1018.6 |
| 20260506114758 | 0 | 69 | 0.0 | 6.4 | 0.00 | 0.00 | 0.00 | 79 | 1018.6 |
| 20260506114256 | 0 | 109 | 0.0 | 1.6 | 0.00 | 0.00 | 0.00 | 78 | 1018.4 |
| 20260506113754 | 0 | 269 | 0.0 | 4.8 | 0.00 | 0.00 | 0.00 | 78 | 1018.4 |
| 20260506113251 | 0 | 286 | 0.0 | 3.2 | 0.00 | 0.00 | 0.00 | 79 | 1018.3 |
| 20260506112748 | 0 | 267 | 1.6 | 4.8 | 0.00 | 0.00 | 0.00 | 79 | 1018.3 |
| 20260506112245 | 0 | 303 | 4.8 | 4.8 | 0.00 | 0.00 | 0.00 | 78 | 1018.0 |
| 20260506111742 | 0 | 311 | 3.2 | 3.2 | 0.00 | 0.00 | 0.00 | 79 | 1018.1 |
| 20260506111241 | 0 | 317 | 0.0 | 3.2 | 0.00 | 0.00 | 0.00 | 79 | 1018.1 |
| 20260506110737 | 0 | 299 | 1.6 | 3.2 | 0.00 | 0.00 | 0.00 | 81 | 1018.1 |
| 20260506110235 | 0 | 255 | 1.6 | 3.2 | 0.00 | 0.00 | 0.00 | 80 | 1018.1 |
| 20260506105731 | 0 | 267 | 1.6 | 1.6 | 0.00 | 0.00 | 0.00 | 81 | 1018.2 |
| 20260506105228 | 0 | 272 | 1.6 | 1.6 | 0.00 | 0.00 | 0.00 | 81 | 1018.2 |
| 20260506104726 | 0 | 181 | 1.6 | 3.2 | 0.00 | 0.00 | 0.00 | 79 | 1018.3 |
| 20260506104224 | 0 | 144 | 1.6 | 4.8 | 0.00 | 0.00 | 0.00 | 78 | 1018.3 |
| 20260506103721 | 0 | 142 | 0.0 | 3.2 | 0.00 | 0.00 | 0.00 | 78 | 1018.2 |
| 20260506103218 | 0 | 124 | 0.0 | 3.2 | 0.00 | 0.00 | 0.00 | 77 | 1018.4 |
| 20260506102716 | 0 | 89 | 0.0 | 3.2 | 0.00 | 0.00 | 0.00 | 76 | 1018.2 |
| 20260506102213 | 0 | 245 | 1.6 | 3.2 | 0.00 | 0.00 | 0.00 | 76 | 1018.1 |
| 20260506101710 | 0 | 215 | 1.6 | 3.2 | 0.00 | 0.00 | 0.00 | 75 | 1018.1 |
| 20260506101206 | 1 | 297 | 3.2 | 3.2 | 0.00 | 0.00 | 0.00 | 75 | 1017.9 |
| 20260506100705 | 1 | 284 | 1.6 | 3.2 | 0.00 | 0.00 | 0.00 | 75 | 1018.0 |
| 20260506100202 | 1 | 0 | 0.0 | 1.6 | 0.00 | 0.00 | 0.00 | 77 | 1017.9 |
| 20260506095701 | 0 | 304 | 0.0 | 1.6 | 0.00 | 0.00 | 0.00 | 76 | 1017.9 |
| 20260506095157 | 0 | 321 | 0.0 | 3.2 | 0.00 | 0.00 | 0.00 | 77 | 1018.0 |
| 20260506094654 | 0 | 326 | 0.0 | 3.2 | 0.00 | 0.00 | 0.00 | 77 | 1017.8 |
| 20260506094152 | 0 | 329 | 0.0 | 3.2 | 0.00 | 0.00 | 0.00 | 78 | 1017.9 |
| 20260506093651 | 0 | 312 | 1.6 | 1.6 | 0.00 | 0.00 | 0.00 | 78 | 1017.8 |
| 20260506093147 | 0 | 14 | 1.6 | 1.6 | 0.00 | 0.00 | 0.00 | 78 | 1017.9 |
| 20260506092645 | 0 | 243 | 0.0 | 0.0 | 0.00 | 0.00 | 0.00 | 77 | 1018.0 |
| 20260506092142 | 0 | 224 | 0.0 | 0.0 | 0.00 | 0.00 | 0.00 | 77 | 1017.8 |
| 20260506091640 | 0 | 132 | 0.0 | 3.2 | 0.00 | 0.00 | 0.00 | 76 | 1017.9 |
| 20260506091137 | 0 | 138 | 3.2 | 3.2 | 0.00 | 0.00 | 0.00 | 76 | 1017.7 |
| 20260506090635 | 0 | 308 | 0.0 | 0.0 | 0.00 | 0.00 | 0.00 | 76 | 1017.6 |
| 20260506090131 | 0 | 310 | 0.0 | 1.6 | 0.00 | 0.00 | 0.00 | 76 | 1017.4 |
| 20260506085628 | 0 | 298 | 1.6 | 3.2 | 0.00 | 0.00 | 0.00 | 74 | 1017.5 |
| 20260506085124 | 0 | 299 | 3.2 | 4.8 | 0.00 | 0.00 | 0.00 | 74 | 1017.6 |
| 20260506084621 | 0 | 304 | 3.2 | 3.2 | 0.00 | 0.00 | 0.00 | 74 | 1017.4 |
| 20260506084118 | 0 | 303 | 1.6 | 3.2 | 0.00 | 0.00 | 0.00 | 75 | 1017.3 |
| 20260506083615 | 0 | 304 | 3.2 | 3.2 | 0.00 | 0.00 | 0.00 | 74 | 1017.2 |
| 20260506083113 | 0 | 335 | 3.2 | 3.2 | 0.00 | 0.00 | 0.00 | 73 | 1017.2 |
| 20260506082609 | 0 | 336 | 3.2 | 4.8 | 0.00 | 0.00 | 0.00 | 74 | 1017.6 |
| 20260506082105 | 0 | 347 | 1.6 | 3.2 | 0.00 | 0.00 | 0.00 | 74 | 1017.3 |
| 20260506081603 | 0 | 316 | 3.2 | 4.8 | 0.00 | 0.00 | 0.00 | 71 | 1017.7 |
| 20260506081100 | 1 | 317 | 3.2 | 4.8 | 0.00 | 0.00 | 0.00 | 70 | 1017.8 |
| 20260506080558 | 1 | 286 | 3.2 | 3.2 | 0.00 | 0.00 | 0.00 | 71 | 1017.7 |
| 20260506073038 | 0 | 281 | 3.2 | 3.2 | 0.00 | 0.00 | 0.00 | 72 | 1017.4 |
| 20260506072535 | 0 | 303 | 3.2 | 4.8 | 0.00 | 0.00 | 0.00 | 71 | 1017.1 |
| 20260506072033 | 0 | 267 | 3.2 | 3.2 | 0.00 | 0.00 | 0.00 | 72 | 1017.1 |
| 20260506071531 | 1 | 290 | 3.2 | 3.2 | 0.00 | 0.00 | 0.00 | 71 | 1017.2 |
| 20260506071028 | 1 | 295 | 1.6 | 4.8 | 0.00 | 0.00 | 0.00 | 70 | 1016.9 |
| 20260506070525 | 1 | 289 | 3.2 | 4.8 | 0.00 | 0.00 | 0.00 | 72 | 1017.2 |
| 20260506062502 | 0 | 248 | 0.0 | 1.6 | 0.00 | 0.00 | 0.00 | 76 | 1017.3 |
| 20260506061959 | 0 | 72 | 0.0 | 1.6 | 0.00 | 0.00 | 0.00 | 73 | 1017.4 |
| 20260506061455 | 0 | 142 | 3.2 | 3.2 | 0.00 | 0.00 | 0.00 | 74 | 1017.2 |
| 20260506060953 | 0 | 124 | 0.0 | 1.6 | 0.00 | 0.00 | 0.00 | 74 | 1017.1 |
| 20260506060451 | 0 | 246 | 0.0 | 1.6 | 0.00 | 0.00 | 0.00 | 72 | 1017.1 |
| 20260506050920 | 0 | 117 | 1.6 | 1.6 | 0.00 | 0.00 | 0.00 | 72 | 1016.6 |
| 20260506050417 | 1 | 89 | 0.0 | 1.6 | 0.00 | 0.00 | 0.00 | 73 | 1016.5 |
| 20260506044908 | 0 | 112 | 0.0 | 1.6 | 0.00 | 0.00 | 0.00 | 69 | 1016.5 |
| 20260506044406 | 1 | 126 | 0.0 | 1.6 | 0.00 | 0.00 | 0.00 | 68 | 1016.6 |
| 20260506043903 | 1 | 127 | 1.6 | 1.6 | 0.00 | 0.00 | 0.00 | 68 | 1016.6 |
| 20260506043400 | 1 | 195 | 1.6 | 3.2 | 0.00 | 0.00 | 0.00 | 67 | 1016.6 |
| 20260506042858 | 2 | 148 | 3.2 | 3.2 | 0.00 | 0.00 | 0.00 | 67 | 1016.5 |
| 20260506042357 | 2 | 119 | 0.0 | 1.6 | 0.00 | 0.00 | 0.00 | 62 | 1016.7 |
| 20260506041855 | 3 | 56 | 0.0 | 3.2 | 0.00 | 0.00 | 0.00 | 62 | 1016.7 |
| 20260506041354 | 3 | 44 | 0.0 | 0.0 | 0.00 | 0.00 | 0.00 | 62 | 1016.6 |
| 20260506040849 | 3 | 32 | 0.0 | 1.6 | 0.00 | 0.00 | 0.00 | 68 | 1016.6 |
| 20260506040346 | 3 | 315 | 0.0 | 0.0 | 0.00 | 0.00 | 0.00 | 66 | 1016.6 |
| 20260506035842 | 3 | 22 | 0.0 | 1.6 | 0.00 | 0.00 | 0.00 | 69 | 1016.4 |
| 20260506035340 | 3 | 32 | 0.0 | 0.0 | 0.00 | 0.00 | 0.00 | 70 | 1016.5 |
| 20260506034837 | 3 | 44 | 0.0 | 0.0 | 0.00 | 0.00 | 0.00 | 65 | 1016.5 |
| 20260506034334 | 3 | 44 | 0.0 | 0.0 | 0.00 | 0.00 | 0.00 | 61 | 1016.6 |
| 20260506033831 | 3 | 44 | 0.0 | 0.0 | 0.00 | 0.00 | 0.00 | 62 | 1016.7 |
| 20260506033328 | 3 | 44 | 0.0 | 0.0 | 0.00 | 0.00 | 0.00 | 63 | 1016.7 |
| 20260506032825 | 4 | 44 | 0.0 | 0.0 | 0.00 | 0.00 | 0.00 | 65 | 1016.7 |
| 20260506032321 | 4 | 293 | 0.0 | 0.0 | 0.00 | 0.00 | 0.00 | 64 | 1016.5 |
| 20260506031818 | 4 | 293 | 0.0 | 0.0 | 0.00 | 0.00 | 0.00 | 64 | 1016.5 |
| 20260506031316 | 5 | 326 | 0.0 | 1.6 | 0.00 | 0.00 | 0.00 | 59 | 1016.7 |
| 20260506030813 | 5 | 315 | 0.0 | 1.6 | 0.00 | 0.00 | 0.00 | 59 | 1016.5 |
| 20260506030311 | 5 | 315 | 0.0 | 1.6 | 0.00 | 0.00 | 0.00 | 60 | 1016.5 |
| 20260506025808 | 5 | 311 | 0.0 | 1.6 | 0.00 | 0.00 | 0.00 | 57 | 1016.4 |
| 20260506025305 | 5 | 290 | 0.0 | 0.0 | 0.00 | 0.00 | 0.00 | 57 | 1016.4 |
| 20260506024801 | 5 | 32 | 0.0 | 0.0 | 0.00 | 0.00 | 0.00 | 53 | 1016.3 |
| 20260506024258 | 5 | 19 | 0.0 | 0.0 | 0.00 | 0.00 | 0.00 | 52 | 1016.2 |
| 20260506023754 | 6 | 19 | 0.0 | 1.6 | 0.00 | 0.00 | 0.00 | 51 | 1016.3 |
| 20260506023251 | 6 | 3 | 0.0 | 3.2 | 0.00 | 0.00 | 0.00 | 49 | 1015.9 |